Index of /20260430/WXO-DD/model_caps/3km/12/046
Name Last modified Size Description
Parent Directory -
20260430T12Z_MSC_CAPS_AbsoluteVorticity_IsbL-0250_RLatLon0.03_PT046H.grib2 2026-04-30 18:20 1.2M
20260430T12Z_MSC_CAPS_AbsoluteVorticity_IsbL-0500_RLatLon0.03_PT046H.grib2 2026-04-30 18:20 1.1M
20260430T12Z_MSC_CAPS_AbsoluteVorticity_IsbL-0700_RLatLon0.03_PT046H.grib2 2026-04-30 18:20 1.0M
20260430T12Z_MSC_CAPS_AbsoluteVorticity_IsbL-0850_RLatLon0.03_PT046H.grib2 2026-04-30 18:20 1.2M
20260430T12Z_MSC_CAPS_AbsoluteVorticity_IsbL-1000_RLatLon0.03_PT046H.grib2 2026-04-30 18:20 1.4M
20260430T12Z_MSC_CAPS_AirDensity_AGL-120m_RLatLon0.03_PT046H.grib2 2026-04-30 18:20 1.4M
20260430T12Z_MSC_CAPS_AirDensity_AGL-40m_RLatLon0.03_PT046H.grib2 2026-04-30 18:20 1.4M
20260430T12Z_MSC_CAPS_AirDensity_AGL-80m_RLatLon0.03_PT046H.grib2 2026-04-30 18:20 1.4M
20260430T12Z_MSC_CAPS_AirTemp_AGL-120m_RLatLon0.03_PT046H.grib2 2026-04-30 18:20 1.8M
20260430T12Z_MSC_CAPS_AirTemp_AGL-2m_RLatLon0.03_PT046H.grib2 2026-04-30 18:20 1.7M
20260430T12Z_MSC_CAPS_AirTemp_AGL-40m_RLatLon0.03_PT046H.grib2 2026-04-30 18:20 1.5M
20260430T12Z_MSC_CAPS_AirTemp_AGL-80m_RLatLon0.03_PT046H.grib2 2026-04-30 18:20 1.8M
20260430T12Z_MSC_CAPS_AirTemp_IsbL-0050_RLatLon0.03_PT046H.grib2 2026-04-30 18:20 693K
20260430T12Z_MSC_CAPS_AirTemp_IsbL-0100_RLatLon0.03_PT046H.grib2 2026-04-30 18:20 967K
20260430T12Z_MSC_CAPS_AirTemp_IsbL-0150_RLatLon0.03_PT046H.grib2 2026-04-30 18:20 755K
20260430T12Z_MSC_CAPS_AirTemp_IsbL-0175_RLatLon0.03_PT046H.grib2 2026-04-30 18:20 775K
20260430T12Z_MSC_CAPS_AirTemp_IsbL-0200_RLatLon0.03_PT046H.grib2 2026-04-30 18:20 794K
20260430T12Z_MSC_CAPS_AirTemp_IsbL-0225_RLatLon0.03_PT046H.grib2 2026-04-30 18:20 794K
20260430T12Z_MSC_CAPS_AirTemp_IsbL-0250_RLatLon0.03_PT046H.grib2 2026-04-30 18:20 782K
20260430T12Z_MSC_CAPS_AirTemp_IsbL-0275_RLatLon0.03_PT046H.grib2 2026-04-30 18:20 1.0M
20260430T12Z_MSC_CAPS_AirTemp_IsbL-0300_RLatLon0.03_PT046H.grib2 2026-04-30 18:20 1.0M
20260430T12Z_MSC_CAPS_AirTemp_IsbL-0350_RLatLon0.03_PT046H.grib2 2026-04-30 18:20 743K
20260430T12Z_MSC_CAPS_AirTemp_IsbL-0400_RLatLon0.03_PT046H.grib2 2026-04-30 18:20 749K
20260430T12Z_MSC_CAPS_AirTemp_IsbL-0450_RLatLon0.03_PT046H.grib2 2026-04-30 18:20 769K
20260430T12Z_MSC_CAPS_AirTemp_IsbL-0500_RLatLon0.03_PT046H.grib2 2026-04-30 18:20 788K
20260430T12Z_MSC_CAPS_AirTemp_IsbL-0550_RLatLon0.03_PT046H.grib2 2026-04-30 18:20 956K
20260430T12Z_MSC_CAPS_AirTemp_IsbL-0600_RLatLon0.03_PT046H.grib2 2026-04-30 18:20 972K
20260430T12Z_MSC_CAPS_AirTemp_IsbL-0650_RLatLon0.03_PT046H.grib2 2026-04-30 18:20 1.0M
20260430T12Z_MSC_CAPS_AirTemp_IsbL-0700_RLatLon0.03_PT046H.grib2 2026-04-30 18:20 1.0M
20260430T12Z_MSC_CAPS_AirTemp_IsbL-0750_RLatLon0.03_PT046H.grib2 2026-04-30 18:20 1.0M
20260430T12Z_MSC_CAPS_AirTemp_IsbL-0800_RLatLon0.03_PT046H.grib2 2026-04-30 18:20 1.0M
20260430T12Z_MSC_CAPS_AirTemp_IsbL-0850_RLatLon0.03_PT046H.grib2 2026-04-30 18:20 1.1M
20260430T12Z_MSC_CAPS_AirTemp_IsbL-0875_RLatLon0.03_PT046H.grib2 2026-04-30 18:20 1.1M
20260430T12Z_MSC_CAPS_AirTemp_IsbL-0900_RLatLon0.03_PT046H.grib2 2026-04-30 18:20 1.1M
20260430T12Z_MSC_CAPS_AirTemp_IsbL-0925_RLatLon0.03_PT046H.grib2 2026-04-30 18:20 1.1M
20260430T12Z_MSC_CAPS_AirTemp_IsbL-0950_RLatLon0.03_PT046H.grib2 2026-04-30 18:20 1.2M
20260430T12Z_MSC_CAPS_AirTemp_IsbL-0970_RLatLon0.03_PT046H.grib2 2026-04-30 18:20 1.1M
20260430T12Z_MSC_CAPS_AirTemp_IsbL-0985_RLatLon0.03_PT046H.grib2 2026-04-30 18:20 1.0M
20260430T12Z_MSC_CAPS_AirTemp_IsbL-1000_RLatLon0.03_PT046H.grib2 2026-04-30 18:20 1.0M
20260430T12Z_MSC_CAPS_AirTemp_IsbL-1015_RLatLon0.03_PT046H.grib2 2026-04-30 18:20 1.1M
20260430T12Z_MSC_CAPS_Albedo_Sfc_RLatLon0.03_PT046H.grib2 2026-04-30 18:20 2.7M
20260430T12Z_MSC_CAPS_CAPE_Sfc_RLatLon0.03_PT046H.grib2 2026-04-30 18:20 113K
20260430T12Z_MSC_CAPS_CloudWater_EAtm_RLatLon0.03_PT046H.grib2 2026-04-30 18:20 1.5M
20260430T12Z_MSC_CAPS_ConvectivePrecip-Accum_Sfc_RLatLon0.03_PT046H.grib2 2026-04-30 18:20 5.1M
20260430T12Z_MSC_CAPS_DewPointDepression_AGL-120m_RLatLon0.03_PT046H.grib2 2026-04-30 18:20 2.0M
20260430T12Z_MSC_CAPS_DewPointDepression_AGL-2m_RLatLon0.03_PT046H.grib2 2026-04-30 18:20 2.1M
20260430T12Z_MSC_CAPS_DewPointDepression_AGL-40m_RLatLon0.03_PT046H.grib2 2026-04-30 18:20 2.1M
20260430T12Z_MSC_CAPS_DewPointDepression_AGL-80m_RLatLon0.03_PT046H.grib2 2026-04-30 18:20 2.0M
20260430T12Z_MSC_CAPS_DewPointDepression_IsbL-0050_RLatLon0.03_PT046H.grib2 2026-04-30 18:20 9.4K
20260430T12Z_MSC_CAPS_DewPointDepression_IsbL-0100_RLatLon0.03_PT046H.grib2 2026-04-30 18:20 109K
20260430T12Z_MSC_CAPS_DewPointDepression_IsbL-0150_RLatLon0.03_PT046H.grib2 2026-04-30 18:20 110K
20260430T12Z_MSC_CAPS_DewPointDepression_IsbL-0175_RLatLon0.03_PT046H.grib2 2026-04-30 18:20 258K
20260430T12Z_MSC_CAPS_DewPointDepression_IsbL-0200_RLatLon0.03_PT046H.grib2 2026-04-30 18:20 430K
20260430T12Z_MSC_CAPS_DewPointDepression_IsbL-0225_RLatLon0.03_PT046H.grib2 2026-04-30 18:20 666K
20260430T12Z_MSC_CAPS_DewPointDepression_IsbL-0250_RLatLon0.03_PT046H.grib2 2026-04-30 18:20 876K
20260430T12Z_MSC_CAPS_DewPointDepression_IsbL-0275_RLatLon0.03_PT046H.grib2 2026-04-30 18:20 1.0M
20260430T12Z_MSC_CAPS_DewPointDepression_IsbL-0300_RLatLon0.03_PT046H.grib2 2026-04-30 18:20 1.0M
20260430T12Z_MSC_CAPS_DewPointDepression_IsbL-0350_RLatLon0.03_PT046H.grib2 2026-04-30 18:20 1.1M
20260430T12Z_MSC_CAPS_DewPointDepression_IsbL-0400_RLatLon0.03_PT046H.grib2 2026-04-30 18:20 1.1M
20260430T12Z_MSC_CAPS_DewPointDepression_IsbL-0450_RLatLon0.03_PT046H.grib2 2026-04-30 18:20 1.2M
20260430T12Z_MSC_CAPS_DewPointDepression_IsbL-0500_RLatLon0.03_PT046H.grib2 2026-04-30 18:20 1.2M
20260430T12Z_MSC_CAPS_DewPointDepression_IsbL-0550_RLatLon0.03_PT046H.grib2 2026-04-30 18:20 1.2M
20260430T12Z_MSC_CAPS_DewPointDepression_IsbL-0600_RLatLon0.03_PT046H.grib2 2026-04-30 18:20 1.3M
20260430T12Z_MSC_CAPS_DewPointDepression_IsbL-0650_RLatLon0.03_PT046H.grib2 2026-04-30 18:20 1.3M
20260430T12Z_MSC_CAPS_DewPointDepression_IsbL-0700_RLatLon0.03_PT046H.grib2 2026-04-30 18:20 1.3M
20260430T12Z_MSC_CAPS_DewPointDepression_IsbL-0750_RLatLon0.03_PT046H.grib2 2026-04-30 18:20 1.3M
20260430T12Z_MSC_CAPS_DewPointDepression_IsbL-0800_RLatLon0.03_PT046H.grib2 2026-04-30 18:20 1.3M
20260430T12Z_MSC_CAPS_DewPointDepression_IsbL-0850_RLatLon0.03_PT046H.grib2 2026-04-30 18:20 1.3M
20260430T12Z_MSC_CAPS_DewPointDepression_IsbL-0875_RLatLon0.03_PT046H.grib2 2026-04-30 18:20 1.3M
20260430T12Z_MSC_CAPS_DewPointDepression_IsbL-0900_RLatLon0.03_PT046H.grib2 2026-04-30 18:20 1.3M
20260430T12Z_MSC_CAPS_DewPointDepression_IsbL-0925_RLatLon0.03_PT046H.grib2 2026-04-30 18:20 1.3M
20260430T12Z_MSC_CAPS_DewPointDepression_IsbL-0950_RLatLon0.03_PT046H.grib2 2026-04-30 18:20 1.3M
20260430T12Z_MSC_CAPS_DewPointDepression_IsbL-0970_RLatLon0.03_PT046H.grib2 2026-04-30 18:20 1.3M
20260430T12Z_MSC_CAPS_DewPointDepression_IsbL-0985_RLatLon0.03_PT046H.grib2 2026-04-30 18:20 1.3M
20260430T12Z_MSC_CAPS_DewPointDepression_IsbL-1000_RLatLon0.03_PT046H.grib2 2026-04-30 18:20 1.3M
20260430T12Z_MSC_CAPS_DewPointDepression_IsbL-1015_RLatLon0.03_PT046H.grib2 2026-04-30 18:20 1.3M
20260430T12Z_MSC_CAPS_DewPoint_AGL-120m_RLatLon0.03_PT046H.grib2 2026-04-30 18:20 3.6M
20260430T12Z_MSC_CAPS_DewPoint_AGL-2m_RLatLon0.03_PT046H.grib2 2026-04-30 18:20 2.2M
20260430T12Z_MSC_CAPS_DewPoint_AGL-40m_RLatLon0.03_PT046H.grib2 2026-04-30 18:20 3.7M
20260430T12Z_MSC_CAPS_DewPoint_AGL-80m_RLatLon0.03_PT046H.grib2 2026-04-30 18:20 3.6M
20260430T12Z_MSC_CAPS_DownwardLongwaveRadiationFlux-Accum_Sfc_RLatLon0.03_PT046H.grib2 2026-04-30 18:20 2.2M
20260430T12Z_MSC_CAPS_DownwardShortwaveRadiationFlux-Accum_NTAtm_RLatLon0.03_PT046H.grib2 2026-04-30 18:20 482K
20260430T12Z_MSC_CAPS_DownwardShortwaveRadiationFlux-Accum_Sfc_RLatLon0.03_PT046H.grib2 2026-04-30 18:20 3.0M
20260430T12Z_MSC_CAPS_FreezingRain-Accum_Sfc_RLatLon0.03_PT046H.grib2 2026-04-30 18:20 1.1M
20260430T12Z_MSC_CAPS_GeopotentialHeight_IsbL-0050_RLatLon0.03_PT046H.grib2 2026-04-30 18:20 634K
20260430T12Z_MSC_CAPS_GeopotentialHeight_IsbL-0100_RLatLon0.03_PT046H.grib2 2026-04-30 18:20 755K
20260430T12Z_MSC_CAPS_GeopotentialHeight_IsbL-0150_RLatLon0.03_PT046H.grib2 2026-04-30 18:20 723K
20260430T12Z_MSC_CAPS_GeopotentialHeight_IsbL-0175_RLatLon0.03_PT046H.grib2 2026-04-30 18:20 737K
20260430T12Z_MSC_CAPS_GeopotentialHeight_IsbL-0200_RLatLon0.03_PT046H.grib2 2026-04-30 18:20 747K
20260430T12Z_MSC_CAPS_GeopotentialHeight_IsbL-0225_RLatLon0.03_PT046H.grib2 2026-04-30 18:20 761K
20260430T12Z_MSC_CAPS_GeopotentialHeight_IsbL-0250_RLatLon0.03_PT046H.grib2 2026-04-30 18:20 767K
20260430T12Z_MSC_CAPS_GeopotentialHeight_IsbL-0275_RLatLon0.03_PT046H.grib2 2026-04-30 18:20 773K
20260430T12Z_MSC_CAPS_GeopotentialHeight_IsbL-0300_RLatLon0.03_PT046H.grib2 2026-04-30 18:20 774K
20260430T12Z_MSC_CAPS_GeopotentialHeight_IsbL-0350_RLatLon0.03_PT046H.grib2 2026-04-30 18:20 779K
20260430T12Z_MSC_CAPS_GeopotentialHeight_IsbL-0400_RLatLon0.03_PT046H.grib2 2026-04-30 18:20 776K
20260430T12Z_MSC_CAPS_GeopotentialHeight_IsbL-0450_RLatLon0.03_PT046H.grib2 2026-04-30 18:20 769K
20260430T12Z_MSC_CAPS_GeopotentialHeight_IsbL-0500_RLatLon0.03_PT046H.grib2 2026-04-30 18:20 761K
20260430T12Z_MSC_CAPS_GeopotentialHeight_IsbL-0550_RLatLon0.03_PT046H.grib2 2026-04-30 18:20 750K
20260430T12Z_MSC_CAPS_GeopotentialHeight_IsbL-0600_RLatLon0.03_PT046H.grib2 2026-04-30 18:20 635K
20260430T12Z_MSC_CAPS_GeopotentialHeight_IsbL-0650_RLatLon0.03_PT046H.grib2 2026-04-30 18:20 635K
20260430T12Z_MSC_CAPS_GeopotentialHeight_IsbL-0700_RLatLon0.03_PT046H.grib2 2026-04-30 18:20 809K
20260430T12Z_MSC_CAPS_GeopotentialHeight_IsbL-0750_RLatLon0.03_PT046H.grib2 2026-04-30 18:20 811K
20260430T12Z_MSC_CAPS_GeopotentialHeight_IsbL-0800_RLatLon0.03_PT046H.grib2 2026-04-30 18:20 815K
20260430T12Z_MSC_CAPS_GeopotentialHeight_IsbL-0850_RLatLon0.03_PT046H.grib2 2026-04-30 18:20 821K
20260430T12Z_MSC_CAPS_GeopotentialHeight_IsbL-0875_RLatLon0.03_PT046H.grib2 2026-04-30 18:20 826K
20260430T12Z_MSC_CAPS_GeopotentialHeight_IsbL-0900_RLatLon0.03_PT046H.grib2 2026-04-30 18:20 835K
20260430T12Z_MSC_CAPS_GeopotentialHeight_IsbL-0925_RLatLon0.03_PT046H.grib2 2026-04-30 18:20 830K
20260430T12Z_MSC_CAPS_GeopotentialHeight_IsbL-0950_RLatLon0.03_PT046H.grib2 2026-04-30 18:20 855K
20260430T12Z_MSC_CAPS_GeopotentialHeight_IsbL-0970_RLatLon0.03_PT046H.grib2 2026-04-30 18:20 864K
20260430T12Z_MSC_CAPS_GeopotentialHeight_IsbL-0985_RLatLon0.03_PT046H.grib2 2026-04-30 18:20 871K
20260430T12Z_MSC_CAPS_GeopotentialHeight_IsbL-1000_RLatLon0.03_PT046H.grib2 2026-04-30 18:20 880K
20260430T12Z_MSC_CAPS_GeopotentialHeight_IsbL-1015_RLatLon0.03_PT046H.grib2 2026-04-30 18:20 891K
20260430T12Z_MSC_CAPS_GeopotentialHeight_Sfc_RLatLon0.03_PT046H.grib2 2026-04-30 18:20 1.0M
20260430T12Z_MSC_CAPS_IcePellets-Accum_Sfc_RLatLon0.03_PT046H.grib2 2026-04-30 18:20 55K
20260430T12Z_MSC_CAPS_LatentHeatNetFlux_Sfc_RLatLon0.03_PT046H.grib2 2026-04-30 18:20 1.8M
20260430T12Z_MSC_CAPS_LiftedIndex-MU-VT_IsbL-0500_RLatLon0.03_PT046H.grib2 2026-04-30 18:20 3.3M
20260430T12Z_MSC_CAPS_MixedLayerThickness_Sfc_RLatLon0.03_PT046H.nc 2026-04-30 18:13 17M
20260430T12Z_MSC_CAPS_NetLongwaveRadiationFlux-Accum_Sfc_RLatLon0.03_PT046H.grib2 2026-04-30 18:20 2.9M
20260430T12Z_MSC_CAPS_NetShortwaveRadiationFlux-Accum_Sfc_RLatLon0.03_PT046H.grib2 2026-04-30 18:20 2.9M
20260430T12Z_MSC_CAPS_PlanetaryBoundaryLayerHeight_Sfc_RLatLon0.03_PT046H.grib2 2026-04-30 18:20 2.9M
20260430T12Z_MSC_CAPS_Precip-Accum_Sfc_RLatLon0.03_PT046H.grib2 2026-04-30 18:20 5.0M
20260430T12Z_MSC_CAPS_PrecipRate_Sfc_RLatLon0.03_PT046H.grib2 2026-04-30 18:20 659K
20260430T12Z_MSC_CAPS_PrecipType-Instant_Sfc_RLatLon0.03_PT046H.grib2 2026-04-30 18:20 2.0M
20260430T12Z_MSC_CAPS_Pressure_MSL_RLatLon0.03_PT046H.grib2 2026-04-30 18:20 768K
20260430T12Z_MSC_CAPS_Pressure_Sfc_RLatLon0.03_PT046H.grib2 2026-04-30 18:20 1.2M
20260430T12Z_MSC_CAPS_RadiativeTemp_Sfc_RLatLon0.03_PT046H.grib2 2026-04-30 18:20 2.1M
20260430T12Z_MSC_CAPS_Rain-Accum_Sfc_RLatLon0.03_PT046H.grib2 2026-04-30 18:20 2.5M
20260430T12Z_MSC_CAPS_RelativeHumidity_AGL-120m_RLatLon0.03_PT046H.grib2 2026-04-30 18:20 2.7M
20260430T12Z_MSC_CAPS_RelativeHumidity_AGL-2m_RLatLon0.03_PT046H.grib2 2026-04-30 18:20 2.9M
20260430T12Z_MSC_CAPS_RelativeHumidity_AGL-40m_RLatLon0.03_PT046H.grib2 2026-04-30 18:20 2.8M
20260430T12Z_MSC_CAPS_RelativeHumidity_AGL-80m_RLatLon0.03_PT046H.grib2 2026-04-30 18:20 2.7M
20260430T12Z_MSC_CAPS_RelativeHumidity_IsbL-0050_RLatLon0.03_PT046H.grib2 2026-04-30 18:20 744K
20260430T12Z_MSC_CAPS_RelativeHumidity_IsbL-0100_RLatLon0.03_PT046H.grib2 2026-04-30 18:20 888K
20260430T12Z_MSC_CAPS_RelativeHumidity_IsbL-0150_RLatLon0.03_PT046H.grib2 2026-04-30 18:20 492K
20260430T12Z_MSC_CAPS_RelativeHumidity_IsbL-0175_RLatLon0.03_PT046H.grib2 2026-04-30 18:20 493K
20260430T12Z_MSC_CAPS_RelativeHumidity_IsbL-0200_RLatLon0.03_PT046H.grib2 2026-04-30 18:20 680K
20260430T12Z_MSC_CAPS_RelativeHumidity_IsbL-0225_RLatLon0.03_PT046H.grib2 2026-04-30 18:20 906K
20260430T12Z_MSC_CAPS_RelativeHumidity_IsbL-0250_RLatLon0.03_PT046H.grib2 2026-04-30 18:20 1.1M
20260430T12Z_MSC_CAPS_RelativeHumidity_IsbL-0275_RLatLon0.03_PT046H.grib2 2026-04-30 18:20 1.4M
20260430T12Z_MSC_CAPS_RelativeHumidity_IsbL-0300_RLatLon0.03_PT046H.grib2 2026-04-30 18:20 1.7M
20260430T12Z_MSC_CAPS_RelativeHumidity_IsbL-0350_RLatLon0.03_PT046H.grib2 2026-04-30 18:20 2.0M
20260430T12Z_MSC_CAPS_RelativeHumidity_IsbL-0400_RLatLon0.03_PT046H.grib2 2026-04-30 18:20 1.9M
20260430T12Z_MSC_CAPS_RelativeHumidity_IsbL-0450_RLatLon0.03_PT046H.grib2 2026-04-30 18:20 2.0M
20260430T12Z_MSC_CAPS_RelativeHumidity_IsbL-0500_RLatLon0.03_PT046H.grib2 2026-04-30 18:20 2.0M
20260430T12Z_MSC_CAPS_RelativeHumidity_IsbL-0550_RLatLon0.03_PT046H.grib2 2026-04-30 18:20 2.2M
20260430T12Z_MSC_CAPS_RelativeHumidity_IsbL-0600_RLatLon0.03_PT046H.grib2 2026-04-30 18:20 2.2M
20260430T12Z_MSC_CAPS_RelativeHumidity_IsbL-0650_RLatLon0.03_PT046H.grib2 2026-04-30 18:20 2.3M
20260430T12Z_MSC_CAPS_RelativeHumidity_IsbL-0700_RLatLon0.03_PT046H.grib2 2026-04-30 18:20 2.3M
20260430T12Z_MSC_CAPS_RelativeHumidity_IsbL-0750_RLatLon0.03_PT046H.grib2 2026-04-30 18:20 2.3M
20260430T12Z_MSC_CAPS_RelativeHumidity_IsbL-0800_RLatLon0.03_PT046H.grib2 2026-04-30 18:20 2.4M
20260430T12Z_MSC_CAPS_RelativeHumidity_IsbL-0850_RLatLon0.03_PT046H.grib2 2026-04-30 18:20 2.4M
20260430T12Z_MSC_CAPS_RelativeHumidity_IsbL-0875_RLatLon0.03_PT046H.grib2 2026-04-30 18:20 2.5M
20260430T12Z_MSC_CAPS_RelativeHumidity_IsbL-0900_RLatLon0.03_PT046H.grib2 2026-04-30 18:20 2.6M
20260430T12Z_MSC_CAPS_RelativeHumidity_IsbL-0925_RLatLon0.03_PT046H.grib2 2026-04-30 18:20 2.6M
20260430T12Z_MSC_CAPS_RelativeHumidity_IsbL-0950_RLatLon0.03_PT046H.grib2 2026-04-30 18:20 2.7M
20260430T12Z_MSC_CAPS_RelativeHumidity_IsbL-0970_RLatLon0.03_PT046H.grib2 2026-04-30 18:20 2.7M
20260430T12Z_MSC_CAPS_RelativeHumidity_IsbL-0985_RLatLon0.03_PT046H.grib2 2026-04-30 18:20 2.8M
20260430T12Z_MSC_CAPS_RelativeHumidity_IsbL-1000_RLatLon0.03_PT046H.grib2 2026-04-30 18:20 2.9M
20260430T12Z_MSC_CAPS_RelativeHumidity_IsbL-1015_RLatLon0.03_PT046H.grib2 2026-04-30 18:20 2.9M
20260430T12Z_MSC_CAPS_Runoff-Accum_Sfc_RLatLon0.03_PT046H.grib2 2026-04-30 18:20 362K
20260430T12Z_MSC_CAPS_SeaIceAreaFraction_Sfc_RLatLon0.03_PT046H.nc 2026-04-30 18:13 15M
20260430T12Z_MSC_CAPS_SeaIceCompressiveStrength_Sfc_RLatLon0.03_PT046H.nc 2026-04-30 18:13 15M
20260430T12Z_MSC_CAPS_SeaIceDivergence_Sfc_RLatLon0.03_PT046H.nc 2026-04-30 18:13 15M
20260430T12Z_MSC_CAPS_SeaIceInternalPressure_Sfc_RLatLon0.03_PT046H.nc 2026-04-30 18:13 15M
20260430T12Z_MSC_CAPS_SeaIceShear_Sfc_RLatLon0.03_PT046H.nc 2026-04-30 18:13 14M
20260430T12Z_MSC_CAPS_SeaIceSnowTemp_Sfc_RLatLon0.03_PT046H.nc 2026-04-30 18:13 15M
20260430T12Z_MSC_CAPS_SeaIceSnowVolume_Sfc_RLatLon0.03_PT046H.nc 2026-04-30 18:13 15M
20260430T12Z_MSC_CAPS_SeaIceVelocityX_Sfc_RLatLon0.03_PT046H.nc 2026-04-30 18:13 15M
20260430T12Z_MSC_CAPS_SeaIceVelocityY_Sfc_RLatLon0.03_PT046H.nc 2026-04-30 18:13 15M
20260430T12Z_MSC_CAPS_SeaIceVolume_Sfc_RLatLon0.03_PT046H.nc 2026-04-30 18:13 15M
20260430T12Z_MSC_CAPS_SeaSurfaceHeight_Sfc_RLatLon0.03_PT046H.nc 2026-04-30 18:13 16M
20260430T12Z_MSC_CAPS_SeaWaterSalinity_DBS-0.5m_RLatLon0.03_PT046H.nc 2026-04-30 18:13 16M
20260430T12Z_MSC_CAPS_SeaWaterSalinity_DBS-all_RLatLon0.03_PT046H.nc 2026-04-30 18:13 107M
20260430T12Z_MSC_CAPS_SeaWaterTemp_DBS-0.5m_RLatLon0.03_PT046H.nc 2026-04-30 18:13 14M
20260430T12Z_MSC_CAPS_SeaWaterTemp_DBS-all_RLatLon0.03_PT046H.nc 2026-04-30 18:13 87M
20260430T12Z_MSC_CAPS_SeaWaterVelocityX_DBS-0.5m_RLatLon0.03_PT046H.nc 2026-04-30 18:13 17M
20260430T12Z_MSC_CAPS_SeaWaterVelocityX_DBS-all_RLatLon0.03_PT046H.nc 2026-04-30 18:13 202M
20260430T12Z_MSC_CAPS_SeaWaterVelocityY_DBS-0.5m_RLatLon0.03_PT046H.nc 2026-04-30 18:13 17M
20260430T12Z_MSC_CAPS_SeaWaterVelocityY_DBS-all_RLatLon0.03_PT046H.nc 2026-04-30 18:13 209M
20260430T12Z_MSC_CAPS_SensibleHeatNetFlux_Sfc_RLatLon0.03_PT046H.grib2 2026-04-30 18:20 2.0M
20260430T12Z_MSC_CAPS_ShowalterIndex_IsbL-0500_RLatLon0.03_PT046H.grib2 2026-04-30 18:20 4.3M
20260430T12Z_MSC_CAPS_Snow-Accum_Sfc_RLatLon0.03_PT046H.grib2 2026-04-30 18:20 4.0M
20260430T12Z_MSC_CAPS_SnowDensity_Sfc_RLatLon0.03_PT046H.grib2 2026-04-30 18:20 1.3M
20260430T12Z_MSC_CAPS_SnowDepthWaterEquivalent_Sfc_RLatLon0.03_PT046H.grib2 2026-04-30 18:20 689K
20260430T12Z_MSC_CAPS_SnowDepth_Sfc_RLatLon0.03_PT046H.grib2 2026-04-30 18:20 1.2M
20260430T12Z_MSC_CAPS_SoilTemp_DBS-0to10cm_RLatLon0.03_PT046H.grib2 2026-04-30 18:20 1.7M
20260430T12Z_MSC_CAPS_SoilTemp_Sfc_RLatLon0.03_PT046H.grib2 2026-04-30 18:20 1.8M
20260430T12Z_MSC_CAPS_SoilVolumetricIceContent_Sfc_RLatLon0.03_PT046H.grib2 2026-04-30 18:20 1.5M
20260430T12Z_MSC_CAPS_SoilVolumetricWaterContent_DBS-0to10cm_RLatLon0.03_PT046H.grib2 2026-04-30 18:20 1.3M
20260430T12Z_MSC_CAPS_SoilVolumetricWaterContent_DBS-0to1cm_RLatLon0.03_PT046H.grib2 2026-04-30 18:20 1.8M
20260430T12Z_MSC_CAPS_SpecificHumidity_AGL-120m_RLatLon0.03_PT046H.grib2 2026-04-30 18:20 1.7M
20260430T12Z_MSC_CAPS_SpecificHumidity_AGL-2m_RLatLon0.03_PT046H.grib2 2026-04-30 18:20 2.1M
20260430T12Z_MSC_CAPS_SpecificHumidity_AGL-40m_RLatLon0.03_PT046H.grib2 2026-04-30 18:20 1.8M
20260430T12Z_MSC_CAPS_SpecificHumidity_AGL-80m_RLatLon0.03_PT046H.grib2 2026-04-30 18:20 1.7M
20260430T12Z_MSC_CAPS_SpecificHumidity_IsbL-0050_RLatLon0.03_PT046H.grib2 2026-04-30 18:20 927K
20260430T12Z_MSC_CAPS_SpecificHumidity_IsbL-0100_RLatLon0.03_PT046H.grib2 2026-04-30 18:20 1.0M
20260430T12Z_MSC_CAPS_SpecificHumidity_IsbL-0150_RLatLon0.03_PT046H.grib2 2026-04-30 18:20 776K
20260430T12Z_MSC_CAPS_SpecificHumidity_IsbL-0175_RLatLon0.03_PT046H.grib2 2026-04-30 18:20 1.0M
20260430T12Z_MSC_CAPS_SpecificHumidity_IsbL-0200_RLatLon0.03_PT046H.grib2 2026-04-30 18:20 889K
20260430T12Z_MSC_CAPS_SpecificHumidity_IsbL-0225_RLatLon0.03_PT046H.grib2 2026-04-30 18:20 848K
20260430T12Z_MSC_CAPS_SpecificHumidity_IsbL-0250_RLatLon0.03_PT046H.grib2 2026-04-30 18:20 1.1M
20260430T12Z_MSC_CAPS_SpecificHumidity_IsbL-0275_RLatLon0.03_PT046H.grib2 2026-04-30 18:20 1.1M
20260430T12Z_MSC_CAPS_SpecificHumidity_IsbL-0300_RLatLon0.03_PT046H.grib2 2026-04-30 18:20 1.0M
20260430T12Z_MSC_CAPS_SpecificHumidity_IsbL-0350_RLatLon0.03_PT046H.grib2 2026-04-30 18:20 954K
20260430T12Z_MSC_CAPS_SpecificHumidity_IsbL-0400_RLatLon0.03_PT046H.grib2 2026-04-30 18:20 1.1M
20260430T12Z_MSC_CAPS_SpecificHumidity_IsbL-0450_RLatLon0.03_PT046H.grib2 2026-04-30 18:20 1.1M
20260430T12Z_MSC_CAPS_SpecificHumidity_IsbL-0500_RLatLon0.03_PT046H.grib2 2026-04-30 18:20 1.3M
20260430T12Z_MSC_CAPS_SpecificHumidity_IsbL-0550_RLatLon0.03_PT046H.grib2 2026-04-30 18:20 1.3M
20260430T12Z_MSC_CAPS_SpecificHumidity_IsbL-0600_RLatLon0.03_PT046H.grib2 2026-04-30 18:20 1.4M
20260430T12Z_MSC_CAPS_SpecificHumidity_IsbL-0650_RLatLon0.03_PT046H.grib2 2026-04-30 18:20 1.5M
20260430T12Z_MSC_CAPS_SpecificHumidity_IsbL-0700_RLatLon0.03_PT046H.grib2 2026-04-30 18:20 1.6M
20260430T12Z_MSC_CAPS_SpecificHumidity_IsbL-0750_RLatLon0.03_PT046H.grib2 2026-04-30 18:20 1.4M
20260430T12Z_MSC_CAPS_SpecificHumidity_IsbL-0800_RLatLon0.03_PT046H.grib2 2026-04-30 18:20 1.5M
20260430T12Z_MSC_CAPS_SpecificHumidity_IsbL-0850_RLatLon0.03_PT046H.grib2 2026-04-30 18:20 1.6M
20260430T12Z_MSC_CAPS_SpecificHumidity_IsbL-0875_RLatLon0.03_PT046H.grib2 2026-04-30 18:20 1.7M
20260430T12Z_MSC_CAPS_SpecificHumidity_IsbL-0900_RLatLon0.03_PT046H.grib2 2026-04-30 18:20 1.8M
20260430T12Z_MSC_CAPS_SpecificHumidity_IsbL-0925_RLatLon0.03_PT046H.grib2 2026-04-30 18:20 1.9M
20260430T12Z_MSC_CAPS_SpecificHumidity_IsbL-0950_RLatLon0.03_PT046H.grib2 2026-04-30 18:20 1.9M
20260430T12Z_MSC_CAPS_SpecificHumidity_IsbL-0970_RLatLon0.03_PT046H.grib2 2026-04-30 18:20 2.0M
20260430T12Z_MSC_CAPS_SpecificHumidity_IsbL-0985_RLatLon0.03_PT046H.grib2 2026-04-30 18:20 2.0M
20260430T12Z_MSC_CAPS_SpecificHumidity_IsbL-1000_RLatLon0.03_PT046H.grib2 2026-04-30 18:20 2.1M
20260430T12Z_MSC_CAPS_SpecificHumidity_IsbL-1015_RLatLon0.03_PT046H.grib2 2026-04-30 18:20 2.1M
20260430T12Z_MSC_CAPS_SpecificHumidity_Sfc_RLatLon0.03_PT046H.grib2 2026-04-30 18:20 2.0M
20260430T12Z_MSC_CAPS_StormRelativeHelicity_Sfc_RLatLon0.03_PT046H.grib2 2026-04-30 18:20 3.3M
20260430T12Z_MSC_CAPS_Thickness_IsbL-1000to0500_RLatLon0.03_PT046H.grib2 2026-04-30 18:20 427K
20260430T12Z_MSC_CAPS_TotalCloudCover_Sfc_RLatLon0.03_PT046H.grib2 2026-04-30 18:20 3.6M
20260430T12Z_MSC_CAPS_TurboclineDepth_Sfc_RLatLon0.03_PT046H.nc 2026-04-30 18:13 16M
20260430T12Z_MSC_CAPS_UpwardLongwaveRadiationFlux_NTAtm_RLatLon0.03_PT046H.grib2 2026-04-30 18:20 2.9M
20260430T12Z_MSC_CAPS_UpwardShortwaveRadiationFlux_NTAtm_RLatLon0.03_PT046H.grib2 2026-04-30 18:20 1.9M
20260430T12Z_MSC_CAPS_VerticalVelocity_IsbL-0250_RLatLon0.03_PT046H.grib2 2026-04-30 18:20 1.0M
20260430T12Z_MSC_CAPS_VerticalVelocity_IsbL-0500_RLatLon0.03_PT046H.grib2 2026-04-30 18:20 1.0M
20260430T12Z_MSC_CAPS_VerticalVelocity_IsbL-0700_RLatLon0.03_PT046H.grib2 2026-04-30 18:20 954K
20260430T12Z_MSC_CAPS_VerticalVelocity_IsbL-0850_RLatLon0.03_PT046H.grib2 2026-04-30 18:20 1.1M
20260430T12Z_MSC_CAPS_VerticalVelocity_IsbL-1000_RLatLon0.03_PT046H.grib2 2026-04-30 18:20 1.4M
20260430T12Z_MSC_CAPS_WindDir_AGL-10m_RLatLon0.03_PT046H.grib2 2026-04-30 18:20 2.4M
20260430T12Z_MSC_CAPS_WindDir_AGL-120m_RLatLon0.03_PT046H.grib2 2026-04-30 18:20 1.2M
20260430T12Z_MSC_CAPS_WindDir_AGL-40m_RLatLon0.03_PT046H.grib2 2026-04-30 18:20 1.3M
20260430T12Z_MSC_CAPS_WindDir_AGL-80m_RLatLon0.03_PT046H.grib2 2026-04-30 18:20 1.2M
20260430T12Z_MSC_CAPS_WindDir_IsbL-0050_RLatLon0.03_PT046H.grib2 2026-04-30 18:20 957K
20260430T12Z_MSC_CAPS_WindDir_IsbL-0100_RLatLon0.03_PT046H.grib2 2026-04-30 18:20 1.1M
20260430T12Z_MSC_CAPS_WindDir_IsbL-0150_RLatLon0.03_PT046H.grib2 2026-04-30 18:20 1.0M
20260430T12Z_MSC_CAPS_WindDir_IsbL-0175_RLatLon0.03_PT046H.grib2 2026-04-30 18:20 1.1M
20260430T12Z_MSC_CAPS_WindDir_IsbL-0200_RLatLon0.03_PT046H.grib2 2026-04-30 18:20 1.1M
20260430T12Z_MSC_CAPS_WindDir_IsbL-0225_RLatLon0.03_PT046H.grib2 2026-04-30 18:20 1.1M
20260430T12Z_MSC_CAPS_WindDir_IsbL-0250_RLatLon0.03_PT046H.grib2 2026-04-30 18:20 1.1M
20260430T12Z_MSC_CAPS_WindDir_IsbL-0275_RLatLon0.03_PT046H.grib2 2026-04-30 18:20 1.1M
20260430T12Z_MSC_CAPS_WindDir_IsbL-0300_RLatLon0.03_PT046H.grib2 2026-04-30 18:20 1.1M
20260430T12Z_MSC_CAPS_WindDir_IsbL-0350_RLatLon0.03_PT046H.grib2 2026-04-30 18:20 1.1M
20260430T12Z_MSC_CAPS_WindDir_IsbL-0400_RLatLon0.03_PT046H.grib2 2026-04-30 18:20 1.1M
20260430T12Z_MSC_CAPS_WindDir_IsbL-0450_RLatLon0.03_PT046H.grib2 2026-04-30 18:20 1.2M
20260430T12Z_MSC_CAPS_WindDir_IsbL-0500_RLatLon0.03_PT046H.grib2 2026-04-30 18:20 1.2M
20260430T12Z_MSC_CAPS_WindDir_IsbL-0550_RLatLon0.03_PT046H.grib2 2026-04-30 18:20 1.3M
20260430T12Z_MSC_CAPS_WindDir_IsbL-0600_RLatLon0.03_PT046H.grib2 2026-04-30 18:20 1.3M
20260430T12Z_MSC_CAPS_WindDir_IsbL-0650_RLatLon0.03_PT046H.grib2 2026-04-30 18:20 1.3M
20260430T12Z_MSC_CAPS_WindDir_IsbL-0700_RLatLon0.03_PT046H.grib2 2026-04-30 18:20 1.4M
20260430T12Z_MSC_CAPS_WindDir_IsbL-0750_RLatLon0.03_PT046H.grib2 2026-04-30 18:20 1.5M
20260430T12Z_MSC_CAPS_WindDir_IsbL-0800_RLatLon0.03_PT046H.grib2 2026-04-30 18:20 1.6M
20260430T12Z_MSC_CAPS_WindDir_IsbL-0850_RLatLon0.03_PT046H.grib2 2026-04-30 18:20 1.7M
20260430T12Z_MSC_CAPS_WindDir_IsbL-0875_RLatLon0.03_PT046H.grib2 2026-04-30 18:20 1.8M
20260430T12Z_MSC_CAPS_WindDir_IsbL-0900_RLatLon0.03_PT046H.grib2 2026-04-30 18:20 1.9M
20260430T12Z_MSC_CAPS_WindDir_IsbL-0925_RLatLon0.03_PT046H.grib2 2026-04-30 18:20 1.9M
20260430T12Z_MSC_CAPS_WindDir_IsbL-0950_RLatLon0.03_PT046H.grib2 2026-04-30 18:20 2.0M
20260430T12Z_MSC_CAPS_WindDir_IsbL-0970_RLatLon0.03_PT046H.grib2 2026-04-30 18:20 2.1M
20260430T12Z_MSC_CAPS_WindDir_IsbL-0985_RLatLon0.03_PT046H.grib2 2026-04-30 18:20 2.1M
20260430T12Z_MSC_CAPS_WindDir_IsbL-1000_RLatLon0.03_PT046H.grib2 2026-04-30 18:20 2.2M
20260430T12Z_MSC_CAPS_WindDir_IsbL-1015_RLatLon0.03_PT046H.grib2 2026-04-30 18:20 2.3M
20260430T12Z_MSC_CAPS_WindGust-Max_AGL-10m_RLatLon0.03_PT046H.grib2 2026-04-30 18:20 2.6M
20260430T12Z_MSC_CAPS_WindGust-Min_AGL-10m_RLatLon0.03_PT046H.grib2 2026-04-30 18:20 2.4M
20260430T12Z_MSC_CAPS_WindGust_AGL-10m_RLatLon0.03_PT046H.grib2 2026-04-30 18:20 2.6M
20260430T12Z_MSC_CAPS_WindSpeed_AGL-10m_RLatLon0.03_PT046H.grib2 2026-04-30 18:20 2.1M
20260430T12Z_MSC_CAPS_WindSpeed_AGL-120m_RLatLon0.03_PT046H.grib2 2026-04-30 18:20 1.1M
20260430T12Z_MSC_CAPS_WindSpeed_AGL-40m_RLatLon0.03_PT046H.grib2 2026-04-30 18:20 1.2M
20260430T12Z_MSC_CAPS_WindSpeed_AGL-80m_RLatLon0.03_PT046H.grib2 2026-04-30 18:20 1.2M
20260430T12Z_MSC_CAPS_WindSpeed_IsbL-0050_RLatLon0.03_PT046H.grib2 2026-04-30 18:20 842K
20260430T12Z_MSC_CAPS_WindSpeed_IsbL-0100_RLatLon0.03_PT046H.grib2 2026-04-30 18:20 1.0M
20260430T12Z_MSC_CAPS_WindSpeed_IsbL-0150_RLatLon0.03_PT046H.grib2 2026-04-30 18:20 1.1M
20260430T12Z_MSC_CAPS_WindSpeed_IsbL-0175_RLatLon0.03_PT046H.grib2 2026-04-30 18:20 1.2M
20260430T12Z_MSC_CAPS_WindSpeed_IsbL-0200_RLatLon0.03_PT046H.grib2 2026-04-30 18:20 942K
20260430T12Z_MSC_CAPS_WindSpeed_IsbL-0225_RLatLon0.03_PT046H.grib2 2026-04-30 18:20 957K
20260430T12Z_MSC_CAPS_WindSpeed_IsbL-0250_RLatLon0.03_PT046H.grib2 2026-04-30 18:20 968K
20260430T12Z_MSC_CAPS_WindSpeed_IsbL-0275_RLatLon0.03_PT046H.grib2 2026-04-30 18:20 1.0M
20260430T12Z_MSC_CAPS_WindSpeed_IsbL-0300_RLatLon0.03_PT046H.grib2 2026-04-30 18:20 1.0M
20260430T12Z_MSC_CAPS_WindSpeed_IsbL-0350_RLatLon0.03_PT046H.grib2 2026-04-30 18:20 1.0M
20260430T12Z_MSC_CAPS_WindSpeed_IsbL-0400_RLatLon0.03_PT046H.grib2 2026-04-30 18:20 1.0M
20260430T12Z_MSC_CAPS_WindSpeed_IsbL-0450_RLatLon0.03_PT046H.grib2 2026-04-30 18:20 1.0M
20260430T12Z_MSC_CAPS_WindSpeed_IsbL-0500_RLatLon0.03_PT046H.grib2 2026-04-30 18:20 1.4M
20260430T12Z_MSC_CAPS_WindSpeed_IsbL-0550_RLatLon0.03_PT046H.grib2 2026-04-30 18:20 1.3M
20260430T12Z_MSC_CAPS_WindSpeed_IsbL-0600_RLatLon0.03_PT046H.grib2 2026-04-30 18:20 1.4M
20260430T12Z_MSC_CAPS_WindSpeed_IsbL-0650_RLatLon0.03_PT046H.grib2 2026-04-30 18:20 1.5M
20260430T12Z_MSC_CAPS_WindSpeed_IsbL-0700_RLatLon0.03_PT046H.grib2 2026-04-30 18:20 1.5M
20260430T12Z_MSC_CAPS_WindSpeed_IsbL-0750_RLatLon0.03_PT046H.grib2 2026-04-30 18:20 1.5M
20260430T12Z_MSC_CAPS_WindSpeed_IsbL-0800_RLatLon0.03_PT046H.grib2 2026-04-30 18:20 1.6M
20260430T12Z_MSC_CAPS_WindSpeed_IsbL-0850_RLatLon0.03_PT046H.grib2 2026-04-30 18:20 1.7M
20260430T12Z_MSC_CAPS_WindSpeed_IsbL-0875_RLatLon0.03_PT046H.grib2 2026-04-30 18:20 1.8M
20260430T12Z_MSC_CAPS_WindSpeed_IsbL-0900_RLatLon0.03_PT046H.grib2 2026-04-30 18:20 1.8M
20260430T12Z_MSC_CAPS_WindSpeed_IsbL-0925_RLatLon0.03_PT046H.grib2 2026-04-30 18:20 1.9M
20260430T12Z_MSC_CAPS_WindSpeed_IsbL-0950_RLatLon0.03_PT046H.grib2 2026-04-30 18:20 1.9M
20260430T12Z_MSC_CAPS_WindSpeed_IsbL-0970_RLatLon0.03_PT046H.grib2 2026-04-30 18:20 2.0M
20260430T12Z_MSC_CAPS_WindSpeed_IsbL-0985_RLatLon0.03_PT046H.grib2 2026-04-30 18:20 2.0M
20260430T12Z_MSC_CAPS_WindSpeed_IsbL-1000_RLatLon0.03_PT046H.grib2 2026-04-30 18:20 2.1M
20260430T12Z_MSC_CAPS_WindSpeed_IsbL-1015_RLatLon0.03_PT046H.grib2 2026-04-30 18:20 2.1M
20260430T12Z_MSC_CAPS_WindU_AGL-10m_RLatLon0.03_PT046H.grib2 2026-04-30 18:20 1.9M
20260430T12Z_MSC_CAPS_WindU_AGL-120m_RLatLon0.03_PT046H.grib2 2026-04-30 18:20 909K
20260430T12Z_MSC_CAPS_WindU_AGL-40m_RLatLon0.03_PT046H.grib2 2026-04-30 18:20 1.2M
20260430T12Z_MSC_CAPS_WindU_AGL-80m_RLatLon0.03_PT046H.grib2 2026-04-30 18:20 1.2M
20260430T12Z_MSC_CAPS_WindU_IsbL-0050_RLatLon0.03_PT046H.grib2 2026-04-30 18:20 760K
20260430T12Z_MSC_CAPS_WindU_IsbL-0100_RLatLon0.03_PT046H.grib2 2026-04-30 18:20 1.0M
20260430T12Z_MSC_CAPS_WindU_IsbL-0150_RLatLon0.03_PT046H.grib2 2026-04-30 18:20 720K
20260430T12Z_MSC_CAPS_WindU_IsbL-0175_RLatLon0.03_PT046H.grib2 2026-04-30 18:20 858K
20260430T12Z_MSC_CAPS_WindU_IsbL-0200_RLatLon0.03_PT046H.grib2 2026-04-30 18:20 874K
20260430T12Z_MSC_CAPS_WindU_IsbL-0225_RLatLon0.03_PT046H.grib2 2026-04-30 18:20 892K
20260430T12Z_MSC_CAPS_WindU_IsbL-0250_RLatLon0.03_PT046H.grib2 2026-04-30 18:20 908K
20260430T12Z_MSC_CAPS_WindU_IsbL-0275_RLatLon0.03_PT046H.grib2 2026-04-30 18:20 703K
20260430T12Z_MSC_CAPS_WindU_IsbL-0300_RLatLon0.03_PT046H.grib2 2026-04-30 18:20 709K
20260430T12Z_MSC_CAPS_WindU_IsbL-0350_RLatLon0.03_PT046H.grib2 2026-04-30 18:20 719K
20260430T12Z_MSC_CAPS_WindU_IsbL-0400_RLatLon0.03_PT046H.grib2 2026-04-30 18:20 942K
20260430T12Z_MSC_CAPS_WindU_IsbL-0450_RLatLon0.03_PT046H.grib2 2026-04-30 18:20 965K
20260430T12Z_MSC_CAPS_WindU_IsbL-0500_RLatLon0.03_PT046H.grib2 2026-04-30 18:20 1.0M
20260430T12Z_MSC_CAPS_WindU_IsbL-0550_RLatLon0.03_PT046H.grib2 2026-04-30 18:20 1.0M
20260430T12Z_MSC_CAPS_WindU_IsbL-0600_RLatLon0.03_PT046H.grib2 2026-04-30 18:20 942K
20260430T12Z_MSC_CAPS_WindU_IsbL-0650_RLatLon0.03_PT046H.grib2 2026-04-30 18:20 971K
20260430T12Z_MSC_CAPS_WindU_IsbL-0700_RLatLon0.03_PT046H.grib2 2026-04-30 18:20 1.0M
20260430T12Z_MSC_CAPS_WindU_IsbL-0750_RLatLon0.03_PT046H.grib2 2026-04-30 18:20 1.0M
20260430T12Z_MSC_CAPS_WindU_IsbL-0800_RLatLon0.03_PT046H.grib2 2026-04-30 18:20 1.1M
20260430T12Z_MSC_CAPS_WindU_IsbL-0850_RLatLon0.03_PT046H.grib2 2026-04-30 18:20 1.2M
20260430T12Z_MSC_CAPS_WindU_IsbL-0875_RLatLon0.03_PT046H.grib2 2026-04-30 18:20 1.2M
20260430T12Z_MSC_CAPS_WindU_IsbL-0900_RLatLon0.03_PT046H.grib2 2026-04-30 18:20 1.3M
20260430T12Z_MSC_CAPS_WindU_IsbL-0925_RLatLon0.03_PT046H.grib2 2026-04-30 18:20 1.3M
20260430T12Z_MSC_CAPS_WindU_IsbL-0950_RLatLon0.03_PT046H.grib2 2026-04-30 18:20 1.4M
20260430T12Z_MSC_CAPS_WindU_IsbL-0970_RLatLon0.03_PT046H.grib2 2026-04-30 18:20 1.4M
20260430T12Z_MSC_CAPS_WindU_IsbL-0985_RLatLon0.03_PT046H.grib2 2026-04-30 18:20 1.8M
20260430T12Z_MSC_CAPS_WindU_IsbL-1000_RLatLon0.03_PT046H.grib2 2026-04-30 18:20 1.9M
20260430T12Z_MSC_CAPS_WindU_IsbL-1015_RLatLon0.03_PT046H.grib2 2026-04-30 18:20 1.9M
20260430T12Z_MSC_CAPS_WindV_AGL-10m_RLatLon0.03_PT046H.grib2 2026-04-30 18:20 1.9M
20260430T12Z_MSC_CAPS_WindV_AGL-120m_RLatLon0.03_PT046H.grib2 2026-04-30 18:20 903K
20260430T12Z_MSC_CAPS_WindV_AGL-40m_RLatLon0.03_PT046H.grib2 2026-04-30 18:20 1.2M
20260430T12Z_MSC_CAPS_WindV_AGL-80m_RLatLon0.03_PT046H.grib2 2026-04-30 18:20 909K
20260430T12Z_MSC_CAPS_WindV_IsbL-0050_RLatLon0.03_PT046H.grib2 2026-04-30 18:20 759K
20260430T12Z_MSC_CAPS_WindV_IsbL-0100_RLatLon0.03_PT046H.grib2 2026-04-30 18:20 1.0M
20260430T12Z_MSC_CAPS_WindV_IsbL-0150_RLatLon0.03_PT046H.grib2 2026-04-30 18:20 723K
20260430T12Z_MSC_CAPS_WindV_IsbL-0175_RLatLon0.03_PT046H.grib2 2026-04-30 18:20 858K
20260430T12Z_MSC_CAPS_WindV_IsbL-0200_RLatLon0.03_PT046H.grib2 2026-04-30 18:20 876K
20260430T12Z_MSC_CAPS_WindV_IsbL-0225_RLatLon0.03_PT046H.grib2 2026-04-30 18:20 893K
20260430T12Z_MSC_CAPS_WindV_IsbL-0250_RLatLon0.03_PT046H.grib2 2026-04-30 18:20 907K
20260430T12Z_MSC_CAPS_WindV_IsbL-0275_RLatLon0.03_PT046H.grib2 2026-04-30 18:20 914K
20260430T12Z_MSC_CAPS_WindV_IsbL-0300_RLatLon0.03_PT046H.grib2 2026-04-30 18:20 921K
20260430T12Z_MSC_CAPS_WindV_IsbL-0350_RLatLon0.03_PT046H.grib2 2026-04-30 18:20 936K
20260430T12Z_MSC_CAPS_WindV_IsbL-0400_RLatLon0.03_PT046H.grib2 2026-04-30 18:20 944K
20260430T12Z_MSC_CAPS_WindV_IsbL-0450_RLatLon0.03_PT046H.grib2 2026-04-30 18:20 963K
20260430T12Z_MSC_CAPS_WindV_IsbL-0500_RLatLon0.03_PT046H.grib2 2026-04-30 18:20 1.0M
20260430T12Z_MSC_CAPS_WindV_IsbL-0550_RLatLon0.03_PT046H.grib2 2026-04-30 18:20 920K
20260430T12Z_MSC_CAPS_WindV_IsbL-0600_RLatLon0.03_PT046H.grib2 2026-04-30 18:20 944K
20260430T12Z_MSC_CAPS_WindV_IsbL-0650_RLatLon0.03_PT046H.grib2 2026-04-30 18:20 970K
20260430T12Z_MSC_CAPS_WindV_IsbL-0700_RLatLon0.03_PT046H.grib2 2026-04-30 18:20 1.3M
20260430T12Z_MSC_CAPS_WindV_IsbL-0750_RLatLon0.03_PT046H.grib2 2026-04-30 18:20 1.3M
20260430T12Z_MSC_CAPS_WindV_IsbL-0800_RLatLon0.03_PT046H.grib2 2026-04-30 18:20 1.4M
20260430T12Z_MSC_CAPS_WindV_IsbL-0850_RLatLon0.03_PT046H.grib2 2026-04-30 18:20 1.2M
20260430T12Z_MSC_CAPS_WindV_IsbL-0875_RLatLon0.03_PT046H.grib2 2026-04-30 18:20 1.2M
20260430T12Z_MSC_CAPS_WindV_IsbL-0900_RLatLon0.03_PT046H.grib2 2026-04-30 18:20 1.3M
20260430T12Z_MSC_CAPS_WindV_IsbL-0925_RLatLon0.03_PT046H.grib2 2026-04-30 18:20 1.3M
20260430T12Z_MSC_CAPS_WindV_IsbL-0950_RLatLon0.03_PT046H.grib2 2026-04-30 18:20 1.4M
20260430T12Z_MSC_CAPS_WindV_IsbL-0970_RLatLon0.03_PT046H.grib2 2026-04-30 18:20 1.4M
20260430T12Z_MSC_CAPS_WindV_IsbL-0985_RLatLon0.03_PT046H.grib2 2026-04-30 18:20 1.4M
20260430T12Z_MSC_CAPS_WindV_IsbL-1000_RLatLon0.03_PT046H.grib2 2026-04-30 18:20 1.8M
20260430T12Z_MSC_CAPS_WindV_IsbL-1015_RLatLon0.03_PT046H.grib2 2026-04-30 18:20 1.9M